Regional Weather Roundup
Issued by NWS

Home | Current Version | Previous Version | Text Only | Print | Product List | Glossary Off
Versions: 1 2 3 4 5 6 7 8 9 10 11 12 13 14 15 16 17 18 19 20 21 22 23 24 25 26 27 28 29 30 31 32 33 34 35 36 37 38 39 40 41 42 43 44 45 46 47 48 49 50

000
ASUS43 KTOP 250959
RWRKS

WEATHER ROUNDUP FOR KANSAS
NATIONAL WEATHER SERVICE GOODLAND KS
500 AM CDT SAT APR 25 2015

NOTE:  "FAIR" INDICATES FEW OR NO CLOUDS BELOW 12,000 FEET WITH NO
SIGNIFICANT WEATHER AND/OR OBSTRUCTIONS TO VISIBILITY.

KSZ001>006-013>018-027>032-041>047-251100-
NORTHWEST KANSAS

CITY           SKY/WX    TMP DP  RH WIND       PRES   REMARKS
GOODLAND       MOCLDY    46  41  82 W7        29.63S
HAYS           CLOUDY    52  45  76 W7        29.49F
HILL CITY      CLOUDY    53  49  86 W8        29.51F
RUSSELL        CLOUDY    53  51  93 N9        29.46F
$$

KSZ061>065-074>080-084>089-251100-
SOUTHWEST KANSAS

CITY           SKY/WX    TMP DP  RH WIND       PRES   REMARKS
DODGE CITY     MOCLDY    51  44  77 W9        29.59R
ELKHART          N/A     47  36  66 W10         N/A
GARDEN CITY    MOCLDY    47  43  86 W12       29.61R
GREAT BEND     CLOUDY    54  48  82 W12       29.50F
LIBERAL        CLEAR     46  37  71 CALM      29.66R
$$

KSZ066>073-081>083-090>101-251100-
SOUTHEAST KANSAS

CITY           SKY/WX    TMP DP  RH WIND       PRES   REMARKS
CHANUTE        CLOUDY    62  58  86 SW9       29.44S
COFFEYVILLE    CLEAR     61  58  90 S17       29.46R
HUTCHINSON     MOCLDY    57  52  83 W16       29.48R
MEDICINE LODGE   N/A     53  49  86 W5        29.55R
NEWTON         CLOUDY    54  48  82 NW12      29.47R
PARSONS        PTCLDY    61  59  93 S14G22    29.46R
WICHITA INTL   MOCLDY    57  53  86 W9        29.47R
WICHITA JABRA  PTCLDY    56  53  90 W9        29.46R
WINFIELD       CLEAR     57  53  86 W14       29.49R
$$

KSZ007>012-019>026-033>040-048>060-102>105-251100-
NORTHEAST KANSAS

CITY           SKY/WX    TMP DP  RH WIND       PRES   REMARKS
CONCORDIA      LGT RAIN  54  52  93 W12       29.42S
EMPORIA        CLOUDY    54  53  97 CALM      29.40S
LAWRENCE       CLOUDY    56  53  90 SE13      29.39F
MANHATTAN      RAIN      56  54  93 W10G20    29.42R FOG
OLATHE IND     CLOUDY    56  54  93 SE10      29.42F
OLATHE EXE     CLOUDY    55  54  96 SE8       29.41F
SALINA         LGT RAIN  57  52  83 W10       29.45R
TOPEKA BILLARD CLOUDY    57  54  89 SE7       29.40R THUNDER
TOPEKA FORBES  LGT RAIN  57  54  89 SE9       29.39S
$$


USA.gov is the U.S. government's official web portal to all federal, state and local government web resources and services.